SCOUT X-4 DEB, 3750

Orbit data source: Space-Track

SCOUT X-4 DEB, 3750 is space debris in LEO originally from a launch on Thu, 19 Dec 1963 UTC launched from the Air Force Western Test Range (AFWTR). Debris objects in space refer to the collection of defunct objects orbiting the Earth. Examples of debris include non-operational satellites, rocket bodies, and fragments generated from explosions, collisions, or faulty payload assembly.

Loading next visibility...
Identifier
3750, 1963-053J
Orbit
LEO
Country
Flag of USUS
Related business
Manufacturer
Unknown
Mission
Spacecraft
Bus & Motor
Unknown
Mass
Unknown
Launch date (UTC)
1963-12-19 (62 years ago)
Launch vehicle
Unknown
Launch site
Air Force Western Test Range (AFWTR)
Object type
Payload
Rocket body
Debris
Shape & HBR
Unknown shape, 0.1 m
Radar Cross Section
Small (<0.1 m²)

Expand to show TLE details & history
Last TLE update: 11 hours ago

TLE from 11 hours ago
0 SCOUT X-4 DEB
1 03750U 63053J   26070.73017182  .00040801  00000-0  40408-2 0  9997
2 03750  78.5665 169.7615 0163343 281.9483  76.3446 14.82136601794095
Epoch: 2026-03-11T17:31Z
TLE epoch observation values (Epoch: 2026-03-11T17:31:26.845Z)
Latitude
-0.00001°
Longitude
97.50942°
Altitude
600.257 km
Speed
7.573 km/s
True Right ascension
11h 19m 02s
True Declination
0° 00' 00"
Sunlit
Object was in full shadow at epoch
Visualization orbit readout
Latitude
Unknown
Longitude
Unknown
Altitude
Unknown
Speed
Unknown
Apparent Right ascension
Unknown
Apparent Declination
Unknown
Sunlit
N/A
Visualization observer readout
Local Sidereal Time
09:18:04
Azimuth
Unknown
Elevation
Unknown
Doppler factor
Unknown
Orbital elements
Apogee altitude
734.124 km
Perigee altitude
505.511 km
Semi-major axis
6,997.954 km
Eccentricity
0.01633
Inclination
78.5665°
RAAN
169.7615°
Arg. of periapsis
281.9483°
True anomaly
78.17196°
Mean anomaly
76.3446°
Eccentric anomaly
77.25744°
Mean motion
3.70755 °/min
Orbital period
97.1 mins
BSTAR
0.0040408
Loading maneuver chart data...
Computing Atmospheric mass density...
Loading historical data...
Loading historical data...
Loading historical data...
Loading historical data...
Loading historical data...
Loading historical data...
Loading historical data...

Documentation

Showing up to 5 results
|